Time,TemperatureF,DewpointF,PressureIn,WindDirection,WindDirectionDegrees,WindSpeedMPH,WindSpeedGustMPH,Humidity,HourlyPrecipIn,Conditions,Clouds,dailyrainin,SoftwareType,DateUTC
2013-07-04 00:05:00,74.6,63.0,30.03,ESE,121,0.0,-999.0,67,-99.99,,,0.00,weatherlink.com 1.10,2013-07-04 04:05:00,
2013-07-04 00:20:00,74.2,63.0,30.03,SE,145,0.0,-999.0,68,-99.99,,,0.00,weatherlink.com 1.10,2013-07-04 04:20:00,
2013-07-04 00:35:00,74.0,63.0,30.02,SE,137,0.0,-999.0,68,-99.99,,,0.00,weatherlink.com 1.10,2013-07-04 04:35:00,
2013-07-04 00:50:00,73.9,63.0,30.02,SE,143,0.0,-999.0,68,-99.99,,,0.00,weatherlink.com 1.10,2013-07-04 04:50:00,
2013-07-04 01:05:00,73.7,63.0,30.01,SE,143,6.0,-999.0,69,-99.99,,,0.00,weatherlink.com 1.10,2013-07-04 05:05:00,
2013-07-04 01:20:00,73.7,63.0,30.00,SSE,148,0.0,-999.0,69,-99.99,,,0.00,weatherlink.com 1.10,2013-07-04 05:20:00,
2013-07-04 01:35:00,73.5,63.0,30.01,East,100,0.0,-999.0,69,-99.99,,,0.00,weatherlink.com 1.10,2013-07-04 05:35:00,
2013-07-04 01:50:00,73.3,63.0,30.00,SE,127,6.0,-999.0,69,-99.99,,,0.00,weatherlink.com 1.10,2013-07-04 05:50:00,
2013-07-04 02:05:00,73.5,62.0,30.00,South,169,0.0,-999.0,68,-99.99,,,0.00,weatherlink.com 1.10,2013-07-04 06:05:00,
2013-07-04 02:20:00,73.9,62.0,30.00,ESE,102,0.0,-999.0,66,-99.99,,,0.00,weatherlink.com 1.10,2013-07-04 06:20:00,
2013-07-04 02:35:00,73.5,62.0,30.01,SE,131,0.0,-999.0,67,-99.99,,,0.00,weatherlink.com 1.10,2013-07-04 06:35:00,
2013-07-04 02:50:00,72.8,62.0,30.01,SE,130,0.0,-999.0,69,-99.99,,,0.00,weatherlink.com 1.10,2013-07-04 06:50:00,
2013-07-04 03:05:00,72.7,62.0,30.01,SE,131,0.0,-999.0,69,-99.99,,,0.00,weatherlink.com 1.10,2013-07-04 07:05:00,
2013-07-04 03:20:00,72.5,62.0,30.01,SE,134,0.0,-999.0,69,-99.99,,,0.00,weatherlink.com 1.10,2013-07-04 07:20:00,
2013-07-04 03:35:00,72.7,62.0,30.01,ESE,114,0.0,-999.0,68,-99.99,,,0.00,weatherlink.com 1.10,2013-07-04 07:35:00,
2013-07-04 03:50:00,72.7,62.0,30.01,SSE,158,0.0,-999.0,68,-99.99,,,0.00,weatherlink.com 1.10,2013-07-04 07:50:00,
2013-07-04 04:05:00,73.0,62.0,30.01,WSW,257,0.0,-999.0,68,-99.99,,,0.00,weatherlink.com 1.10,2013-07-04 08:05:00,
2013-07-04 04:20:00,72.7,62.0,30.02,WSW,257,0.0,-999.0,69,-99.99,,,0.00,weatherlink.com 1.10,2013-07-04 08:20:00,
2013-07-04 04:35:00,71.5,63.0,30.03,WSW,257,0.0,-999.0,74,-99.99,,,0.00,weatherlink.com 1.10,2013-07-04 08:35:00,
2013-07-04 04:50:00,70.9,63.0,30.03,WSW,254,0.0,-999.0,75,-99.99,,,0.00,weatherlink.com 1.10,2013-07-04 08:50:00,
2013-07-04 05:05:00,70.6,62.0,30.04,SSE,165,0.0,-999.0,74,-99.99,,,0.00,weatherlink.com 1.10,2013-07-04 09:05:00,
2013-07-04 05:20:00,71.8,62.0,30.04,SSE,158,0.0,-999.0,72,-99.99,,,0.00,weatherlink.com 1.10,2013-07-04 09:20:00,
2013-07-04 05:35:00,72.5,62.0,30.05,ENE,73,0.0,-999.0,70,-99.99,,,0.00,weatherlink.com 1.10,2013-07-04 09:35:00,
2013-07-04 05:50:00,72.7,62.0,30.04,SE,130,0.0,-999.0,70,-99.99,,,0.00,weatherlink.com 1.10,2013-07-04 09:50:00,
2013-07-04 06:05:00,72.7,62.0,30.05,SSE,167,0.0,-999.0,70,-99.99,,,0.00,weatherlink.com 1.10,2013-07-04 10:05:00,
2013-07-04 06:20:00,72.7,62.0,30.06,SSE,167,1.0,-999.0,70,-99.99,,,0.00,weatherlink.com 1.10,2013-07-04 10:20:00,
2013-07-04 06:35:00,72.7,63.0,30.06,SE,128,1.0,-999.0,71,-99.99,,,0.00,weatherlink.com 1.10,2013-07-04 10:35:00,
2013-07-04 07:05:00,73.2,63.0,30.06,SE,145,0.0,-999.0,70,-99.99,,,0.00,weatherlink.com 1.10,2013-07-04 11:05:00,
2013-07-04 07:20:00,73.0,63.0,30.07,South,175,3.0,-999.0,71,-99.99,,,0.00,weatherlink.com 1.10,2013-07-04 11:20:00,
2013-07-04 07:35:00,72.7,63.0,30.08,South,176,0.0,-999.0,72,-99.99,,,0.00,weatherlink.com 1.10,2013-07-04 11:35:00,
2013-07-04 07:50:00,73.0,63.0,30.08,SE,144,4.0,-999.0,72,-99.99,,,0.00,weatherlink.com 1.10,2013-07-04 11:50:00,
2013-07-04 08:05:00,73.5,64.0,30.08,SSE,151,0.0,-999.0,72,-99.99,,,0.00,weatherlink.com 1.10,2013-07-04 12:05:00,
2013-07-04 08:20:00,74.7,64.0,30.09,South,179,0.0,-999.0,70,-99.99,,,0.00,weatherlink.com 1.10,2013-07-04 12:20:00,
2013-07-04 08:35:00,75.1,64.0,30.09,SSW,195,0.0,-999.0,69,-99.99,,,0.00,weatherlink.com 1.10,2013-07-04 12:35:00,
2013-07-04 08:50:00,75.4,65.0,30.10,SW,233,5.0,-999.0,69,-99.99,,,0.00,weatherlink.com 1.10,2013-07-04 12:50:00,
2013-07-04 09:05:00,74.9,64.0,30.10,South,181,0.0,-999.0,69,-99.99,,,0.00,weatherlink.com 1.10,2013-07-04 13:05:00,
2013-07-04 09:20:00,75.3,64.0,30.10,SSW,196,0.0,-999.0,68,-99.99,,,0.00,weatherlink.com 1.10,2013-07-04 13:20:00,
2013-07-04 09:35:00,75.4,64.0,30.10,South,176,0.0,-999.0,67,-99.99,,,0.00,weatherlink.com 1.10,2013-07-04 13:35:00,
2013-07-04 09:50:00,75.6,64.0,30.11,SW,223,0.0,-999.0,68,-99.99,,,0.00,weatherlink.com 1.10,2013-07-04 13:50:00,
2013-07-04 10:05:00,77.0,63.0,30.10,WSW,240,2.0,-999.0,63,-99.99,,,0.00,weatherlink.com 1.10,2013-07-04 14:05:00,
2013-07-04 10:20:00,77.4,63.0,30.10,SW,232,0.0,-999.0,62,-99.99,,,0.00,weatherlink.com 1.10,2013-07-04 14:20:00,
2013-07-04 10:36:00,78.6,63.0,30.09,WNW,294,6.0,-999.0,60,-99.99,,,0.00,weatherlink.com 1.10,2013-07-04 14:36:00,
2013-07-04 10:51:00,79.0,63.0,30.09,SW,229,0.0,-999.0,58,-99.99,,,0.00,weatherlink.com 1.10,2013-07-04 14:51:00,
2013-07-04 11:06:00,79.9,63.0,30.08,West,281,0.0,-999.0,57,-99.99,,,0.00,weatherlink.com 1.10,2013-07-04 15:06:00,
2013-07-04 11:21:00,80.5,64.0,30.08,WNW,301,0.0,-999.0,57,-99.99,,,0.00,weatherlink.com 1.10,2013-07-04 15:21:00,
2013-07-04 11:36:00,79.6,62.0,30.07,West,263,0.0,-999.0,55,-99.99,,,0.00,weatherlink.com 1.10,2013-07-04 15:36:00,
2013-07-04 11:51:00,81.6,63.0,30.07,WSW,241,4.0,-999.0,54,-99.99,,,0.00,weatherlink.com 1.10,2013-07-04 15:51:00,
2013-07-04 12:06:00,81.6,65.0,30.06,SW,236,0.0,-999.0,57,-99.99,,,0.00,weatherlink.com 1.10,2013-07-04 16:06:00,
2013-07-04 12:21:00,82.8,64.0,30.06,WSW,251,0.0,-999.0,53,-99.99,,,0.00,weatherlink.com 1.10,2013-07-04 16:21:00,
2013-07-04 12:36:00,83.0,64.0,30.06,SSW,210,0.0,-999.0,52,-99.99,,,0.00,weatherlink.com 1.10,2013-07-04 16:36:00,
2013-07-04 12:51:00,83.0,65.0,30.05,ENE,72,0.0,-999.0,55,-99.99,,,0.00,weatherlink.com 1.10,2013-07-04 16:51:00,
2013-07-04 13:06:00,84.7,65.0,30.05,South,185,0.0,-999.0,51,-99.99,,,0.00,weatherlink.com 1.10,2013-07-04 17:06:00,
2013-07-04 13:21:00,85.5,62.0,30.05,WSW,251,8.0,-999.0,46,-99.99,,,0.00,weatherlink.com 1.10,2013-07-04 17:21:00,
2013-07-04 13:36:00,84.9,61.0,30.04,WSW,250,0.0,-999.0,45,-99.99,,,0.00,weatherlink.com 1.10,2013-07-04 17:36:00,
2013-07-04 13:51:00,84.5,63.0,30.04,SE,134,0.0,-999.0,48,-99.99,,,0.00,weatherlink.com 1.10,2013-07-04 17:51:00,
2013-07-04 14:06:00,86.1,64.0,30.03,WSW,250,0.0,-999.0,47,-99.99,,,0.00,weatherlink.com 1.10,2013-07-04 18:06:00,
2013-07-04 14:21:00,84.9,63.0,30.03,SW,236,0.0,-999.0,48,-99.99,,,0.00,weatherlink.com 1.10,2013-07-04 18:21:00,
2013-07-04 14:36:00,84.7,65.0,30.02,SW,236,0.0,-999.0,52,-99.99,,,0.00,weatherlink.com 1.10,2013-07-04 18:36:00,
2013-07-04 19:11:00,78.1,69.0,30.00,NNW,335,0.0,-999.0,73,-99.99,,,0.00,weatherlink.com 1.10,2013-07-04 23:11:00,
2013-07-04 19:26:00,77.7,68.0,30.01,NNW,335,0.0,-999.0,72,-99.99,,,0.00,weatherlink.com 1.10,2013-07-04 23:26:00,
2013-07-04 19:41:00,77.7,70.0,30.02,NNW,335,0.0,-999.0,76,-99.99,,,0.00,weatherlink.com 1.10,2013-07-04 23:41:00,
2013-07-04 19:56:00,76.8,70.0,30.02,NW,309,0.0,-999.0,79,-99.99,,,0.00,weatherlink.com 1.10,2013-07-04 23:56:00,
2013-07-04 20:11:00,75.8,70.0,30.02,NW,308,0.0,-999.0,81,-99.99,,,0.00,weatherlink.com 1.10,2013-07-05 00:11:00,
2013-07-04 20:26:00,75.1,70.0,30.02,NW,308,0.0,-999.0,84,-99.99,,,0.01,weatherlink.com 1.10,2013-07-05 00:26:00,
2013-07-04 20:56:00,74.0,70.0,30.02,NW,308,0.0,-999.0,87,-99.99,,,0.01,weatherlink.com 1.10,2013-07-05 00:56:00,
2013-07-04 21:11:00,73.5,70.0,30.03,NW,308,0.0,-999.0,88,-99.99,,,0.01,weatherlink.com 1.10,2013-07-05 01:11:00,
2013-07-04 21:26:00,73.0,69.0,30.03,NW,308,0.0,-999.0,88,-99.99,,,0.01,weatherlink.com 1.10,2013-07-05 01:26:00,
2013-07-04 21:41:00,72.5,69.0,30.02,NW,308,0.0,-999.0,89,-99.99,,,0.01,weatherlink.com 1.10,2013-07-05 01:41:00,
2013-07-04 21:56:00,72.0,69.0,30.03,NW,308,0.0,-999.0,89,-99.99,,,0.01,weatherlink.com 1.10,2013-07-05 01:56:00,
2013-07-04 22:11:00,71.6,69.0,30.04,NW,308,0.0,-999.0,90,-99.99,,,0.01,weatherlink.com 1.10,2013-07-05 02:11:00,
2013-07-04 22:26:00,71.1,68.0,30.03,NW,308,0.0,-999.0,90,-99.99,,,0.01,weatherlink.com 1.10,2013-07-05 02:26:00,
2013-07-04 22:41:00,71.3,68.0,30.03,NW,308,0.0,-999.0,90,-99.99,,,0.01,weatherlink.com 1.10,2013-07-05 02:41:00,
2013-07-04 22:56:00,71.1,68.0,30.03,NW,306,0.0,-999.0,90,-99.99,,,0.01,weatherlink.com 1.10,2013-07-05 02:56:00,
2013-07-04 23:11:00,70.9,67.0,30.03,NW,306,0.0,-999.0,88,-99.99,,,0.01,weatherlink.com 1.10,2013-07-05 03:11:00,
2013-07-04 23:26:00,70.8,67.0,30.03,NW,306,0.0,-999.0,88,-99.99,,,0.01,weatherlink.com 1.10,2013-07-05 03:26:00,
2013-07-04 23:42:00,70.6,67.0,30.03,NW,306,0.0,-999.0,88,-99.99,,,0.01,weatherlink.com 1.10,2013-07-05 03:42:00,
2013-07-04 23:57:00,70.4,67.0,30.03,NW,306,0.0,-999.0,88,-99.99,,,0.01,weatherlink.com 1.10,2013-07-05 03:57:00,